Location: Fort Worth, Tx
(32.7431°N, 97.3695°W)
Time: 09:33:41
(UTC-04:00)

UNISAT 6 - Visible Passes

Search period start: 21 March 2023 00:00
Search period end: 31 March 2023 00:00
Orbit: 602 x 680 km, 97.7° (Epoch: 20 March)

Date Brightness Start Highest point End Pass type
(mag) Time Alt. Az. Time Alt. Az. Time Alt. Az.
21 Mar ? 06:32:18 10° ESE 06:35:22 20° ENE 06:38:29 10° NNE visible
22 Mar ? 06:55:07 10° SE 06:59:03 36° ENE 07:03:03 10° N visible
23 Mar ? 07:18:32 10° SSE 07:22:47 73° ENE 07:27:09 10° N visible
24 Mar ? 06:10:01 10° ENE 06:10:38 10° ENE 06:11:15 10° ENE visible
24 Mar ? 07:42:25 10° S 07:46:37 55° W 07:50:56 10° NNW visible
24 Mar ? 21:14:47 10° NNW 21:17:32 16° WNW 21:20:16 10° WSW visible
25 Mar ? 06:31:06 10° ESE 06:34:12 19° ENE 06:37:20 10° NNE visible
26 Mar ? 06:53:54 10° SE 06:57:50 36° ENE 07:01:52 10° N visible
27 Mar ? 07:17:16 10° SSE 07:21:33 72° ENE 07:25:58 10° N visible
28 Mar ? 06:08:45 10° ENE 06:09:23 10° ENE 06:10:02 10° ENE visible
28 Mar ? 07:41:07 10° S 07:45:21 57° W 07:49:43 10° NNW visible
28 Mar ? 21:13:31 10° NNW 21:16:18 16° WNW 21:19:05 10° WSW visible
29 Mar ? 06:29:49 10° ESE 06:32:56 19° ENE 06:36:06 10° NNE visible
30 Mar ? 06:52:34 10° SE 06:56:32 36° ENE 07:00:37 10° N visible
